| time (UTC) | temp F | wind direction | speed MPH | gust MPH | rain 1hr in | rain 24hr in | rain mn in | humidity % | barometer mb |
| 20260503225024 | 63 | 218 | 2.0 | 7.0 | 0.00 | 0.00 | 0.00 | 77 | 1014.8 |
| 20260503224125 | 63 | 213 | 2.0 | 6.0 | 0.00 | 0.00 | 0.00 | 76 | 1014.9 |
| 20260503223223 | 63 | 217 | 2.0 | 9.0 | 0.00 | 0.00 | 0.00 | 76 | 1014.8 |
| 20260503222323 | 63 | 224 | 2.0 | 6.0 | 0.00 | 0.00 | 0.00 | 76 | 1014.8 |
| 20260503221423 | 63 | 226 | 2.0 | 7.0 | 0.00 | 0.00 | 0.00 | 76 | 1014.7 |
| 20260503220545 | 63 | 238 | 3.0 | 10.0 | 0.00 | 0.00 | 0.00 | 76 | 1014.8 |
| 20260503215623 | 63 | 237 | 2.0 | 8.0 | 0.00 | 0.00 | 0.00 | 75 | 1014.8 |
| 20260503214723 | 63 | 233 | 2.0 | 6.0 | 0.00 | 0.00 | 0.00 | 74 | 1014.8 |
| 20260503213844 | 63 | 228 | 2.0 | 6.0 | 0.00 | 0.00 | 0.00 | 74 | 1014.7 |
| 20260503212944 | 63 | 225 | 2.0 | 6.0 | 0.00 | 0.00 | 0.00 | 74 | 1014.7 |
| 20260503212023 | 64 | 245 | 2.0 | 7.0 | 0.00 | 0.00 | 0.00 | 73 | 1014.7 |
| 20260503211123 | 64 | 247 | 3.0 | 7.0 | 0.00 | 0.00 | 0.00 | 73 | 1014.7 |
| 20260503210224 | 64 | 256 | 4.0 | 6.0 | 0.00 | 0.00 | 0.00 | 73 | 1014.6 |
| 20260503205323 | 64 | 265 | 4.0 | 11.0 | 0.00 | 0.00 | 0.00 | 73 | 1014.5 |
| 20260503204424 | 64 | 247 | 4.0 | 8.0 | 0.00 | 0.00 | 0.00 | 72 | 1014.4 |
| 20260503203544 | 64 | 245 | 4.0 | 9.0 | 0.00 | 0.00 | 0.00 | 72 | 1014.3 |
| 20260503202644 | 64 | 266 | 4.0 | 9.0 | 0.00 | 0.00 | 0.00 | 72 | 1014.2 |
| 20260503201723 | 64 | 261 | 6.0 | 11.0 | 0.00 | 0.00 | 0.00 | 71 | 1014.1 |
| 20260503200823 | 65 | 267 | 6.0 | 15.0 | 0.00 | 0.00 | 0.00 | 71 | 1013.9 |
| 20260503195923 | 65 | 268 | 7.0 | 15.0 | 0.00 | 0.00 | 0.00 | 70 | 1013.7 |
| 20260503195023 | 65 | 266 | 6.0 | 15.0 | 0.00 | 0.00 | 0.00 | 69 | 1013.6 |
| 20260503194124 | 65 | 259 | 8.0 | 15.0 | 0.00 | 0.00 | 0.00 | 68 | 1013.4 |
| 20260503193223 | 66 | 264 | 7.0 | 14.0 | 0.00 | 0.00 | 0.00 | 67 | 1013.4 |
| 20260503192323 | 66 | 261 | 7.0 | 14.0 | 0.00 | 0.00 | 0.00 | 66 | 1013.4 |
| 20260503191423 | 66 | 268 | 6.0 | 15.0 | 0.00 | 0.00 | 0.00 | 65 | 1013.3 |
| 20260503190523 | 67 | 269 | 7.0 | 11.0 | 0.00 | 0.00 | 0.00 | 63 | 1013.3 |
| 20260503185623 | 67 | 262 | 8.0 | 15.0 | 0.00 | 0.00 | 0.00 | 63 | 1013.2 |
| 20260503184744 | 68 | 249 | 9.0 | 18.0 | 0.00 | 0.00 | 0.00 | 62 | 1013.2 |
| 20260503183823 | 68 | 243 | 8.0 | 17.0 | 0.00 | 0.00 | 0.00 | 60 | 1013.2 |
| 20260503182944 | 68 | 248 | 9.0 | 19.0 | 0.00 | 0.00 | 0.00 | 57 | 1013.1 |
| 20260503182023 | 69 | 246 | 9.0 | 16.0 | 0.00 | 0.00 | 0.00 | 58 | 1013.1 |
| 20260503181144 | 69 | 238 | 9.0 | 16.0 | 0.00 | 0.00 | 0.00 | 58 | 1013.1 |
| 20260503180223 | 70 | 237 | 9.0 | 16.0 | 0.00 | 0.00 | 0.00 | 60 | 1013.0 |
| 20260503175323 | 70 | 254 | 9.0 | 16.0 | 0.00 | 0.00 | 0.00 | 59 | 1012.9 |
| 20260503174423 | 71 | 264 | 9.0 | 16.0 | 0.00 | 0.00 | 0.00 | 58 | 1012.8 |
| 20260503173523 | 72 | 248 | 9.0 | 16.0 | 0.00 | 0.00 | 0.00 | 56 | 1012.9 |
| 20260503172623 | 72 | 251 | 8.0 | 15.0 | 0.00 | 0.00 | 0.00 | 56 | 1012.9 |
| 20260503171744 | 72 | 262 | 8.0 | 16.0 | 0.00 | 0.00 | 0.00 | 56 | 1012.8 |
| 20260503170844 | 72 | 258 | 8.0 | 16.0 | 0.00 | 0.00 | 0.00 | 55 | 1012.7 |
| 20260503150222 | 74 | 247 | 9.0 | 20.0 | 0.00 | 0.00 | 0.00 | 49 | 1013.0 |
| 20260503130522 | 74 | 250 | 6.0 | 17.0 | 0.00 | 0.00 | 0.00 | 51 | 1013.7 |
| 20260503090221 | 68 | 212 | 2.0 | 5.0 | 0.00 | 0.00 | 0.00 | 77 | 1015.1 |
| 20260503080821 | 67 | 324 | 0.0 | 1.0 | 0.00 | 0.00 | 0.00 | 81 | 1015.1 |
| 20260503072321 | 65 | 177 | 0.0 | 5.0 | 0.00 | 0.00 | 0.00 | 84 | 1014.9 |
| 20260503071422 | 64 | 0 | 0.0 | 0.0 | 0.00 | 0.00 | 0.00 | 86 | 1014.9 |
| 20260503070521 | 64 | 254 | 0.0 | 1.0 | 0.00 | 0.00 | 0.00 | 87 | 1014.9 |
| 20260503060221 | 63 | 0 | 0.0 | 0.0 | 0.00 | 0.00 | 0.00 | 87 | 1014.7 |
| 20260503054421 | 63 | 253 | 0.0 | 6.0 | 0.00 | 0.00 | 0.00 | 87 | 1014.6 |
| 20260503053521 | 63 | 257 | 0.0 | 3.0 | 0.00 | 0.00 | 0.00 | 87 | 1014.5 |
| 20260503052621 | 63 | 0 | 0.0 | 0.0 | 0.00 | 0.00 | 0.00 | 87 | 1014.3 |
| 20260503051721 | 63 | 0 | 0.0 | 0.0 | 0.00 | 0.00 | 0.00 | 87 | 1014.4 |
| 20260503050821 | 63 | 0 | 0.0 | 0.0 | 0.00 | 0.00 | 0.00 | 87 | 1014.4 |
| 20260503045921 | 63 | 196 | 0.0 | 4.0 | 0.00 | 0.00 | 0.00 | 87 | 1014.5 |
| 20260503045021 | 63 | 217 | 0.0 | 4.0 | 0.00 | 0.00 | 0.00 | 87 | 1014.4 |
| 20260503044121 | 63 | 247 | 0.0 | 4.0 | 0.00 | 0.00 | 0.00 | 86 | 1014.5 |
| 20260503043220 | 63 | 260 | 0.0 | 4.0 | 0.00 | 0.00 | 0.00 | 86 | 1014.4 |
| 20260503042321 | 63 | 0 | 0.0 | 0.0 | 0.00 | 0.00 | 0.00 | 86 | 1014.5 |
| 20260503041442 | 63 | 252 | 0.0 | 1.0 | 0.00 | 0.00 | 0.00 | 86 | 1014.5 |
| 20260503040541 | 63 | 0 | 0.0 | 0.0 | 0.00 | 0.00 | 0.00 | 86 | 1014.4 |
| 20260503035620 | 63 | 258 | 0.0 | 1.0 | 0.00 | 0.00 | 0.00 | 85 | 1014.6 |
| 20260503034720 | 64 | 243 | 0.0 | 2.0 | 0.00 | 0.00 | 0.00 | 85 | 1014.6 |
| 20260503033820 | 64 | 233 | 0.0 | 2.0 | 0.00 | 0.00 | 0.00 | 85 | 1014.7 |
| 20260503032920 | 64 | 0 | 0.0 | 0.0 | 0.00 | 0.00 | 0.00 | 85 | 1014.7 |
| 20260503032021 | 64 | 244 | 0.0 | 3.0 | 0.00 | 0.00 | 0.00 | 84 | 1014.6 |
| 20260503031120 | 64 | 251 | 0.0 | 3.0 | 0.00 | 0.00 | 0.00 | 84 | 1014.7 |
| 20260503030220 | 64 | 249 | 0.0 | 1.0 | 0.00 | 0.00 | 0.00 | 84 | 1014.9 |
| 20260503025320 | 64 | 245 | 0.0 | 2.0 | 0.00 | 0.00 | 0.00 | 84 | 1014.9 |
| 20260503024421 | 64 | 248 | 0.0 | 2.0 | 0.00 | 0.00 | 0.00 | 84 | 1014.8 |
| 20260503023541 | 64 | 248 | 0.0 | 2.0 | 0.00 | 0.00 | 0.00 | 84 | 1014.8 |
| 20260503022620 | 64 | 259 | 0.0 | 3.0 | 0.00 | 0.00 | 0.00 | 83 | 1014.8 |
| 20260503021720 | 64 | 0 | 0.0 | 0.0 | 0.00 | 0.00 | 0.00 | 83 | 1014.7 |
| 20260503020820 | 64 | 0 | 0.0 | 0.0 | 0.00 | 0.00 | 0.00 | 83 | 1014.9 |
| 20260503015920 | 64 | 0 | 0.0 | 0.0 | 0.00 | 0.00 | 0.00 | 83 | 1015.0 |
| 20260503015020 | 64 | 0 | 0.0 | 0.0 | 0.00 | 0.00 | 0.00 | 83 | 1015.2 |
| 20260503014120 | 64 | 219 | 1.0 | 5.0 | 0.00 | 0.00 | 0.00 | 82 | 1015.2 |
| 20260503013220 | 64 | 239 | 1.0 | 5.0 | 0.00 | 0.00 | 0.00 | 82 | 1015.3 |
| 20260503012320 | 64 | 217 | 0.0 | 5.0 | 0.00 | 0.00 | 0.00 | 81 | 1015.5 |
| 20260503011441 | 64 | 0 | 0.0 | 0.0 | 0.00 | 0.00 | 0.00 | 81 | 1015.5 |
| 20260503010520 | 64 | 0 | 0.0 | 0.0 | 0.00 | 0.00 | 0.00 | 80 | 1015.5 |
| 20260503005620 | 64 | 0 | 0.0 | 0.0 | 0.00 | 0.00 | 0.00 | 80 | 1015.8 |
| 20260503004720 | 64 | 0 | 0.0 | 0.0 | 0.00 | 0.00 | 0.00 | 80 | 1015.9 |
| 20260503003820 | 63 | 0 | 0.0 | 0.0 | 0.00 | 0.00 | 0.00 | 80 | 1016.0 |
| 20260503002920 | 63 | 0 | 0.0 | 0.0 | 0.00 | 0.00 | 0.00 | 79 | 1015.9 |
| 20260503002020 | 63 | 0 | 0.0 | 0.0 | 0.00 | 0.00 | 0.00 | 79 | 1016.0 |
| 20260503001141 | 63 | 0 | 0.0 | 0.0 | 0.00 | 0.00 | 0.00 | 79 | 1016.0 |
| 20260503000241 | 63 | 0 | 0.0 | 0.0 | 0.00 | 0.00 | 0.00 | 79 | 1016.2 |
| 20260502235320 | 63 | 0 | 0.0 | 0.0 | 0.00 | 0.00 | 0.00 | 78 | 1016.3 |
| 20260502234441 | 64 | 0 | 0.0 | 0.0 | 0.00 | 0.00 | 0.00 | 78 | 1016.2 |
| 20260502233520 | 64 | 0 | 0.0 | 0.0 | 0.00 | 0.00 | 0.00 | 77 | 1016.1 |
| 20260502232620 | 64 | 0 | 0.0 | 0.0 | 0.00 | 0.00 | 0.00 | 77 | 1016.3 |
| 20260502231720 | 64 | 0 | 0.0 | 0.0 | 0.00 | 0.00 | 0.00 | 77 | 1016.3 |
| 20260502230820 | 64 | 0 | 0.0 | 0.0 | 0.00 | 0.00 | 0.00 | 77 | 1016.4 |
| 20260502225920 | 64 | 0 | 0.0 | 0.0 | 0.00 | 0.00 | 0.00 | 77 | 1016.3 |